Regional Weather Roundup
Issued by NWS

Home | Current Version | Previous Version | Text Only | Print | Product List | Glossary Off
Versions: 1 2 3 4 5 6 7 8 9 10 11 12 13 14 15 16 17 18 19 20 21 22 23 24 25 26 27 28 29 30 31 32 33 34 35 36 37 38 39 40 41 42 43 44 45 46 47 48 49 50

000
ASUS43 KLSX 171507
RWRMO

WEATHER SUMMARY FOR MISSOURI
NATIONAL WEATHER SERVICE SPRINGFIELD MO
900 AM CST SUN DEC 17 2017

NOTE: "FAIR" INDICATES FEW OR NO CLOUDS BELOW 12,000 FEET WITH NO
       SIGNIFICANT WEATHER AND/OR OBSTRUCTIONS TO VISIBILITY.
       CURRENT SKY AND/OR WEATHER CONDITIONS ARE NOT AVAILABLE FOR
       CHILLICOTHE AND FARMINGTON.

MOZ001>031-035>038-043-044-053-054-171600-
...NORTHERN AND WESTERN MISSOURI...

CITY           SKY/WX    TMP DP  RH WIND       PRES   REMARKS
KANSAS CTY INT CLOUDY    43  42  97 S9        30.02R FOG
KANSAS C DTWN  CLOUDY    45  42  89 S10       30.04R FOG
LEE`S SUMMIT   CLOUDY    43  43 100 S10       30.04R FOG
ST JOSEPH      CLOUDY    42  42 100 S6        30.02R FOG
CHILLICOTHE      N/A     42  40  92 E3        30.01F
KIRKSVILLE     CLOUDY    45  34  65 SW10      30.04R

$$
MOZ066>068-077>081-088>096-101>105-171600-
...SOUTHWEST MISSOURI...

CITY           SKY/WX    TMP DP  RH WIND       PRES   REMARKS
SPRINGFIELD    CLOUDY    43  42  97 S5        30.06S
JOPLIN         CLOUDY    43  43 100 S6        30.07R FOG
BRANSON        FOG       41  41 100 S5        30.09R VSB 1

$$
MOZ032>034-039>042-045>050-055>058-069>072-171600-
...CENTRAL MISSOURI...

CITY           SKY/WX    TMP DP  RH WIND       PRES   REMARKS
COLUMBIA       CLOUDY    42  41  96 S6        30.09R
JEFFERSON CITY CLOUDY    43  38  82 CALM      30.11R
ROLLA          LGT RAIN  43  38  82 W5        30.09R
SEDALIA        LGT RAIN  44  44 100 S8        30.08R
WHITEMAN AFB   LGT RAIN  43  41  95 SW8       30.02R
WARRENSBURG    DRIZZLE   41  41 100 S7        30.06R
OSAGE BEACH    LGT RAIN  43  41  93 CALM      30.09R

$$
MOZ051-052-059>065-171600-
...EAST CENTRAL MISSOURI...

CITY           SKY/WX    TMP DP  RH WIND       PRES   REMARKS
ST LOUIS INTL  CLOUDY    46  33  60 CALM      30.07R
SPIRIT OF STL  CLOUDY    46  34  62 W5        30.08R
ST CHARLES     CLOUDY    44  32  62 E5        30.08R

$$
MOZ072>076-082>087-097>100-106>115-171600-
...SOUTH CENTRAL AND SOUTHEAST MISSOURI...

CITY           SKY/WX    TMP DP  RH WIND       PRES   REMARKS
CAPE GIRARDEAU CLOUDY    42  40  92 S10       30.13S FOG
FARMINGTON     CLOUDY    41  39  93 S8        30.07F
POPLAR BLUFF   LGT RAIN  43  42  97 SE7       30.12F FOG
WEST PLAINS    CLOUDY    42  40  92 S6        30.09R FOG

$$



USA.gov is the U.S. government's official web portal to all federal, state and local government web resources and services.